Douglas, AZ

4:26 AM MST on February 22, 2017 (GMT -0700)
Bisbee Douglas International

Weather History for KDUG - January, 2013

Change the Weather History Date:

Wednesday, January 9, 2013

  Actual Average Record
Temperature  
Mean Temperature 43 °F 46 °F  
Max Temperature 61 °F 62 °F 79 °F (2017)
Min Temperature 24 °F 29 °F 7 °F (1967)
Degree Days  
Heating Degree Days 22 19  
Month to date heating degree days 239 173  
Since 1 July heating degree days 1123 1197  
Cooling Degree Days 0 0  
Month to date cooling degree days 0 0  
Year to date cooling degree days 0 0  
Moisture  
Dew Point 18 °F    
Average Humidity 42    
Maximum Humidity 68    
Minimum Humidity 16    
Precipitation  
Precipitation 0.00 in 0.02 in 0.40 in (2001)
Month to date precipitation T 0.21  
Year to date precipitation T 0.21  
Snow  
Snow 0.00 in - - ()
Month to date snowfall 0.0  
Snow Depth 0.00 in    
Sea Level Pressure  
Sea Level Pressure 30.13 in    
Wind  
Wind Speed 7 mph (ENE)    
Max Wind Speed 21 mph    
Max Gust Speed 25 mph    
Visibility 10 miles    
Events      
T = Trace of Precipitation, MM = Missing Value Source: NWS Daily Summary

Daily Weather History Graph

Daily Weather History Graph

Search for Another Location

Airport or City:

Trip Planner

Search our weather history database for the weather conditions in past years. The results will help you decide how hot, cold, wet, or windy it might be!

Date:

Astronomy

Jan. 09, 2013 Rise Set
Actual Time 7:18 AM MST 5:33 PM MST
Civil Twilight 6:52 AM MST 5:59 PM MST
Nautical Twilight 6:22 AM MST 6:29 PM MST
Astronomical Twilight 5:52 AM MST 6:58 PM MST
Moon 5:01 AM MST (1/9) 3:38 PM MST (1/9)
Length of Visible Light 11h 07m
Length of Day
10h 14m
Waning Crescent, 6% of the Moon is Illuminated
Jan 9
Waning Crescent
Jan 11
New
Jan 18
First Quarter
Jan 26
Full
Feb 3
Last Quarter

Hourly Weather History & Observations

Time (MST) Temp. Windchill Dew Point Humidity Pressure Visibility Wind Dir Wind Speed Gust Speed Precip Events Conditions
12:56 AM 37.0 °F 29.8 °F 19.0 °F 48% 30.04 in 10.0 mi North 10.4 mph - N/A   Clear
1:56 AM 33.1 °F 26.9 °F 18.0 °F 54% 30.06 in 10.0 mi WNW 6.9 mph - N/A   Clear
2:56 AM 30.9 °F 26.2 °F 17.1 °F 57% 30.09 in 10.0 mi North 4.6 mph - N/A   Clear
3:56 AM 30.9 °F 23.5 °F 17.1 °F 57% 30.11 in 10.0 mi NE 8.1 mph - N/A   Clear
4:56 AM 28.9 °F 21.9 °F 17.1 °F 61% 30.14 in 10.0 mi WNW 6.9 mph - N/A   Clear
5:56 AM 28.0 °F 20.8 °F 17.1 °F 63% 30.16 in 10.0 mi NNW 6.9 mph - N/A   Clear
6:56 AM 28.9 °F 21.9 °F 17.1 °F 61% 30.20 in 10.0 mi NNE 6.9 mph - N/A   Clear
7:56 AM 26.6 °F - 17.6 °F 69% 30.24 in 10.0 mi Calm Calm - N/A   Clear
8:56 AM 32.0 °F 28.7 °F 19.0 °F 59% 30.27 in 10.0 mi West 3.5 mph - N/A   Clear
9:56 AM 42.1 °F - 21.0 °F 43% 30.27 in 10.0 mi Calm Calm - N/A   Clear
10:56 AM 53.1 °F - 18.0 °F 25% 30.20 in 10.0 mi South 6.9 mph - N/A   Clear
11:56 AM 57.0 °F - 14.0 °F 18% 30.16 in 10.0 mi ESE 13.8 mph - N/A   Clear
12:56 PM 59.0 °F - 14.0 °F 17% 30.12 in 10.0 mi East 18.4 mph 24.2 mph N/A   Clear
1:56 PM 60.1 °F - 16.0 °F 18% 30.10 in 10.0 mi East 13.8 mph - N/A   Clear
2:56 PM 60.1 °F - 15.1 °F 17% 30.10 in 10.0 mi East 11.5 mph 20.7 mph N/A   Clear
3:56 PM 60.1 °F - 16.0 °F 18% 30.08 in 10.0 mi East 12.7 mph - N/A   Clear
4:56 PM 55.9 °F - 16.0 °F 21% 30.09 in 10.0 mi ESE 8.1 mph - N/A   Clear
5:56 PM 48.9 °F - 17.1 °F 28% 30.10 in 10.0 mi ESE 8.1 mph - N/A   Clear
7:56 PM 46.9 °F - 23.0 °F 39% 30.13 in 10.0 mi SSE 4.6 mph - N/A   Clear
8:56 PM 44.1 °F 42.5 °F 21.9 °F 42% 30.13 in 10.0 mi SSE 3.5 mph - N/A   Clear
9:56 PM 43.0 °F - 23.0 °F 45% 30.10 in 10.0 mi Calm Calm - N/A   Clear
10:56 PM 39.9 °F 37.8 °F 24.1 °F 53% 30.07 in 10.0 mi WSW 3.5 mph - N/A   Clear
11:56 PM 37.9 °F - 24.1 °F 57% 30.05 in 10.0 mi Calm Calm - N/A   Clear